This is the latest recevied weather packets stored in our database for station/object WC4PEM. If no packets are shown the sender has not sent any weather packets the latest 1 day(s).
| Time | Temp. | Humidity | Pressure | Rain* | Wind** | Luminosity | Snow |
|---|---|---|---|---|---|---|---|
| 1778010267 | 31.11° C | 47% | 1013.6 hPa | 0 mm | 4.47 m/s, 51° | - | - |
| 1778010013 | 31.11° C | 46% | 1013.7 hPa | 0 mm | 3.58 m/s, 75° | - | - |
| 1778009967 | 31.11° C | 46% | 1013.7 hPa | 0 mm | 3.58 m/s, 75° | - | - |
| 1778009667 | 31.11° C | 46% | 1013.8 hPa | 0 mm | 2.68 m/s, 63° | - | - |
| 1778009413 | 31.11° C | 46% | 1013.8 hPa | 0 mm | 3.13 m/s, 52° | - | - |
| 1778009367 | 31.11° C | 46% | 1013.8 hPa | 0 mm | 3.13 m/s, 52° | - | - |
| 1778009127 | 31.11° C | 46% | 1013.9 hPa | 0 mm | 3.13 m/s, 68° | - | - |
| 1778009103 | 31.11° C | 45% | 1014.1 hPa | 0 mm | 4.02 m/s, 109° | - | - |
| 1778009067 | 31.11° C | 46% | 1013.9 hPa | 0 mm | 3.13 m/s, 68° | - | - |
| 1778008767 | 31.11° C | 46% | 1014 hPa | 0 mm | 3.58 m/s, 32° | - | - |
| 1778008467 | 31.11° C | 45% | 1014.1 hPa | 0 mm | 4.02 m/s, 109° | - | - |
| 1778008389 | 32.22° C | 44% | 1014.1 hPa | 0 mm | 3.13 m/s, 74° | - | - |
| 1778008225 | 32.22° C | 44% | 1014.1 hPa | 0 mm | 3.13 m/s, 74° | - | - |
| 1778008167 | 32.22° C | 44% | 1014.1 hPa | 0 mm | 3.13 m/s, 74° | - | - |
| 1778007867 | 31.67° C | 44% | 1014.1 hPa | 0 mm | 2.68 m/s, 57° | - | - |
| 1778007567 | 31.67° C | 44% | 1014.2 hPa | 0 mm | 1.79 m/s, 59° | - | - |
| 1778007395 | 31.11° C | 45% | 1014.1 hPa | 0 mm | 2.24 m/s, 102° | - | - |
| 1778007267 | 31.11° C | 45% | 1014.1 hPa | 0 mm | 2.24 m/s, 102° | - | - |
| 1778007044 | 31.11° C | 45% | 1014.3 hPa | 0 mm | 3.58 m/s, 98° | - | - |
| 1778006967 | 31.11° C | 45% | 1014.3 hPa | 0 mm | 3.58 m/s, 98° | - | - |
| 1778006667 | 30.56° C | 47% | 1014.3 hPa | 0 mm | 2.68 m/s, 90° | - | - |
| 1778006367 | 30.56° C | 48% | 1014.3 hPa | 0 mm | 2.24 m/s, 111° | - | - |
| 1778006151 | 30° C | 48% | 1014.4 hPa | 0 mm | 4.02 m/s, 144° | - | - |
| 1778006067 | 30° C | 48% | 1014.4 hPa | 0 mm | 4.02 m/s, 144° | - | - |
| 1778005833 | 30.56° C | 48% | 1014.5 hPa | 0 mm | 4.02 m/s, 103° | - | - |
* Rain latest hour (hover to see other rain measurements)
** Current wind speed in m/s (hover to see current wind gust speed)